CAPELLA-4 (WHITNEY) (47481 NORAD) Tracking and Keplerian Element Data

This shows tracking and keplerian element data for the satellite.

Feedback or suggestion? Click here.




ElementValue
Catalog47481
NameCAPELLA-4 (WHITNEY)
Epoch Orbit1197
Epoch Day101.80584567
Epoch Year2021
RAAN164.1972
Inclination97.4979
Eccentricity0.000919
Argument of Perigee344.5289
Mean Anonmoly15.566
Mean Motion15.12797946
Decay Rate2.487E-05
L11 47481U 21006BW 21101.80584567 .00002487 00000-0 14525-3 0 9992
L22 47481 97.4979 164.1972 0009190 344.5289 15.5660 15.12797946 11977

Live tracking and technical data element details for CAPELLA-4 (WHITNEY) (NORAD 47481). CAPELLA-4 (WHITNEY) can be tracked NOW for your location showing map with azimuth and elevation plus other details from your city location.

Track the satellite on the map from your city or location and see movement details for azimuth, elevation, latitude, longitude, range, height, and movement on the map or in text.







IsCatalogInMostPopularTable: catalog: 47481, numindb: 12
Update: records affected: 1



GetName: 47481 CAPELLA-4 (WHITNEY)

Hit Count: updated at: Tue, 13 Apr 2021 04:42:06 GMT